Regional Weather Roundup
Issued by NWS Jackson, KY

Home | Current Version | Previous Version | Text Only | Print | Product List | Glossary On
Versions: 1 2 3 4 5 6 7 8 9 10 11 12 13 14 15 16 17 18 19 20 21 22 23 24 25 26 27 28
000
ASUS43 KJKL 141910
RWRJKL

EAST KENTUCKY HOURLY WEATHER ROUNDUP
NATIONAL WEATHER SERVICE JACKSON KY
200 PM EST THU DEC 14 2017

NOTE: "FAIR" INDICATES FEW OR NO CLOUDS BELOW 12,000 FEET WITH
NO SIGNIFICANT WEATHER AND/OR OBSTRUCTIONS TO VISIBILITY.

* THESE REPORTS ARE NOT UNDER NWS QUALITY CONTROL AND MAY NOT
  REPORT WEATHER SUCH AS PRECIPITATION AND FOG.

KYZ079-080-083-085-087-088-110-112-115-119-120-142000
...EASTERN KENTUCKY...

CITY           SKY/WX    TMP DP  RH WIND       PRES   REMARKS
JACKSON        CLOUDY    34  21  59 W5        29.96R WCI  30
LONDON         CLOUDY    36  22  56 N8        29.95S WCI  30
SOMERSET*      CLOUDY    36  23  60 NE8       29.98F WCI  29
MONTICELLO*    CLOUDY    37  24  59 N12       29.99S WCI  29
WILLIAMSBURG*  CLOUDY    36  25  64 N6        29.96R WCI  31
MIDDLESBORO*   CLOUDY    40  27  60 N5        29.95R
HARLAN APT*    MOCLDY    37  25  60 NW3       29.91F
PIKE CO APT*   CLOUDY    34  22  60 NW8       29.94S WCI  28
BIG SANDY APT* CLOUDY    35  21  57 N6        29.95S WCI  30
MOREHEAD APT*  CLOUDY    32  18  55 VRB5      30.00S WCI  27
$$

KYZ035-036-041-042-044-050-067-078-099-142000
...CENTRAL KENTUCKY...

CITY           SKY/WX    TMP DP  RH WIND       PRES   REMARKS
MT STERLING*   CLOUDY    32  21  64 CALM      30.01R
FLEMING/MASON* CLOUDY    30  19  62 N7        30.01S WCI  23
DANVILLE*      CLOUDY    32  21  64 N5        29.99F WCI  27
LEXINGTON      CLOUDY    36  16  44 VRB3      29.99F
FRANKFORT      SUNNY     36  12  37 VRB3      29.99F
LOUISVILLE     CLOUDY    34  18  52 NW7       30.03F WCI  28
LEBANON*       MOCLDY    34  19  55 CALM      30.00S
GLASGOW*       CLOUDY    38  24  56 W3        30.00S
BOWLING GREEN  CLOUDY    37  23  56 W5        30.02F WCI  33
$$

KYZ091>093-OHZ055-061-077-WVZ005-015-034-035-042-142000
...SOUTHERN OHIO/WEST VIRGINIA...

CITY           SKY/WX    TMP DP  RH WIND       PRES   REMARKS
COVINGTON      CLOUDY    27  17  66 N8        30.02F WCI  19
COLUMBUS       CLOUDY    27  17  66 NW8       30.02S WCI  19
DAYTON         CLOUDY    23  16  74 N6        30.03F WCI  16
WILMINGTON     CLOUDY    23  16  74 N3        30.02R
HUNTINGTON     CLOUDY    34  19  54 N7        29.98S WCI  28
CHARLESTON     CLOUDY    34  19  54 CALM      29.96R
PINEVILLE*       N/A     35  23  59 MISG      29.95R
BECKLEY        CLOUDY    30  20  66 NW7       29.87R WCI  23
BLUEFIELD      CLOUDY    30  20  66 W10       29.85R WCI  21
LOGAN CO APT*  CLOUDY    32  21  64 CALM      29.92R
$$

VAZ002-007-008-TNZ017-027-036-066-071-142000
...SOUTHWEST VIRGINIA/EAST TENNESSEE...

CITY           SKY/WX    TMP DP  RH WIND       PRES   REMARKS
WISE*          PTSUNNY   36  28  75 N6        29.88S WCI  31
JONESVILLE*      N/A     41  27  56 N7        29.94R
ABINGDON*      PTSUNNY   41  26  57 N7        29.87S
BRISTOL        CLOUDY    44  29  55 CALM      29.88F
MORRISTOWN*    PTCLDY    48  28  46 N8        29.89S
SEVIERVILLE*   CLEAR     52  28  40 NW13      29.89S
KNOXVILLE      MOSUNNY   49  32  52 W14       29.91S
LAFOLLETTE*    CLEAR     43  27  52 NE7       29.96S
OAK RIDGE      SUNNY     49  30  48 VRB6      29.92F
CROSSVILLE     SUNNY     41  25  53 NW8       29.92S
NASHVILLE      CLOUDY    40  26  57 N8        30.02S WCI  34
$$

...KEY TO REMARKS...
VSB - VISIBILITY IN MILES
WCI - WIND CHILL INDEX
HX  - HEAT INDEX

$$




USA.gov is the U.S. government's official web portal to all federal, state and local government web resources and services.